This demonstration page uses our WeatherBlox Daily Observations layout. Learn more.

Left ArrowRight Arrow

36.17497, -115.13722

Hourly Observations for March 13, 2019

Temp ( °F °C ) Dew Point ( °F °C ) Humidity (%) Winds ( mph kmh ) Pressure ( in mb ) Visibility ( mi km ) Precip ( " mm )
12:53 am 00:53 Cloudy 48 8.9 38 3.3 68 68 NW 12 19 29.65 1004 10 16 0.00 0.00
1:53 am 01:53 Cloudy 50 10 35 1.7 57 57 NNW 10 17 29.67 1005 10 16 0.00 0.00
2:53 am 02:53 Mostly Clear 51 10.6 30 -1.1 44 44 NNW 23 37 29.70 1006 10 16 0.00 0.00
3:53 am 03:53 Clear 50 10 27 -2.8 41 41 N 18 30 29.73 1007 10 16 0.00 0.00
4:53 am 04:53 Clear 50 10 25 -3.9 38 38 NNW 17 28 29.77 1008 10 16 0.00 0.00
5:53 am 05:53 Clear 48 8.9 26 -3.3 42 42 NNW 22 35 29.81 1010 10 16 0.00 0.00
6:53 am 06:53 Clear 47 8.3 22 -5.6 37 37 NNW 29 46 29.84 1011 10 16 0.00 0.00
7:53 am 07:53 Sunny 47 8.3 15 -9.4 28 28 N 24 39 29.88 1012 10 16 0.00 0.00
8:53 am 08:53 Sunny 49 9.4 15 -9.4 26 26 NNW 24 39 29.92 1013 10 16 0.00 0.00
9:53 am 09:53 Sunny 50 10 16 -8.9 26 26 NNW 26 43 29.93 1014 10 16 0.00 0.00
10:53 am 10:53 Sunny 51 10.6 15 -9.4 24 24 N 25 41 29.96 1014 10 16 0.00 0.00
11:53 am 11:53 Sunny 53 11.7 13 -10.6 20 20 NNW 30 48 29.98 1015 10 16 0.00 0.00
12:53 pm 12:53 Sunny 55 12.8 8 -13.3 15 15 N 32 52 29.98 1015 10 16 0.00 0.00
1:53 pm 13:53 Sunny 56 13.3 9 -12.8 15 15 NNW 23 37 29.98 1015 10 16 0.00 0.00
2:53 pm 14:53 Sunny 56 13.3 7 -13.9 14 14 NNW 23 37 29.97 1015 10 16 0.00 0.00
3:53 pm 15:53 Sunny 57 13.9 8 -13.3 14 14 NNW 21 33 29.99 1016 10 16 0.00 0.00
4:53 pm 16:53 Sunny 56 13.3 8 -13.3 14 14 NNW 17 28 30.02 1017 10 16 0.00 0.00
5:53 pm 17:53 Sunny 56 13.3 8 -13.3 14 14 N 20 31 30.04 1017 10 16 0.00 0.00
6:53 pm 18:53 Clear 53 11.7 6 -14.4 15 15 N 14 22 30.08 1019 10 16 0.00 0.00
7:53 pm 19:53 Clear 51 10.6 10 -12.2 19 19 N 7 11 30.12 1020 10 16 0.00 0.00
8:53 pm 20:53 Clear 50 10 10 -12.2 20 20 N 7 11 30.16 1021 10 16 0.00 0.00
9:53 pm 21:53 Clear 49 9.4 11 -11.7 21 21 NNW 9 15 30.19 1022 10 16 0.00 0.00
10:53 pm 22:53 Clear 47 8.3 12 -11.1 24 24 NNW 10 17 30.22 1023 10 16 0.00 0.00
11:53 pm 23:53 Clear 47 8.3 12 -11.1 24 24 NNW 16 26 30.23 1024 10 16 0.00 0.00

Powered by AerisWeather